This is the latest recevied weather packets stored in our database for station/object KB1WCR. If no packets are shown the sender has not sent any weather packets the latest 10 day(s).
| Time | Temp. | Humidity | Pressure | Rain* | Wind** | Luminosity | Snow |
|---|---|---|---|---|---|---|---|
| 1777864812 | 0° C | 92% | 1007.8 hPa | 0 mm | - | 0 W/m² | - |
| 1777864509 | 0° C | 91% | 1007.9 hPa | 0 mm | - | 0 W/m² | - |
| 1777864205 | 0.56° C | 90% | 1008 hPa | 0 mm | - | 0 W/m² | - |
| 1777863903 | 0.56° C | 91% | 1008 hPa | 0 mm | - | 0 W/m² | - |
| 1777863598 | 0.56° C | 90% | 1007.8 hPa | 0 mm | - | 0 W/m² | - |
| 1777863296 | 0.56° C | 89% | 1007.8 hPa | 0 mm | - | 0 W/m² | - |
| 1777862992 | 0.56° C | 89% | 1007.9 hPa | 0 mm | - | 0 W/m² | - |
| 1777862689 | 1.11° C | 88% | 1007.8 hPa | 0 mm | - | 0 W/m² | - |
| 1777862386 | 1.67° C | 87% | 1007.7 hPa | 0 mm | - | 0 W/m² | - |
| 1777862084 | 1.11° C | 87% | 1007.6 hPa | 0 mm | - | 0 W/m² | - |
| 1777861779 | 1.67° C | 87% | 1007.8 hPa | 0 mm | - | 0 W/m² | - |
| 1777861475 | 1.67° C | 86% | 1007.8 hPa | 0 mm | - | 0 W/m² | - |
| 1777861172 | 1.67° C | 86% | 1007.8 hPa | 0 mm | - | 0 W/m² | - |
| 1777860869 | 1.67° C | 85% | 1007.9 hPa | 0 mm | - | 0 W/m² | - |
| 1777860566 | 2.22° C | 83% | 1007.9 hPa | 0 mm | - | 0 W/m² | - |
| 1777860263 | 2.22° C | 82% | 1007.8 hPa | 0 mm | - | 0 W/m² | - |
| 1777859960 | 2.22° C | 81% | 1007.7 hPa | 0 mm | - | 0 W/m² | - |
| 1777859656 | 2.22° C | 80% | 1007.8 hPa | 0 mm | - | 0 W/m² | - |
| 1777859352 | 2.78° C | 80% | 1007.7 hPa | 0 mm | - | 0 W/m² | - |
| 1777859048 | 2.78° C | 80% | 1007.9 hPa | 0 mm | - | 0 W/m² | - |
| 1777858745 | 3.33° C | 78% | 1007.8 hPa | 0 mm | - | 0 W/m² | - |
| 1777858443 | 3.33° C | 78% | 1007.5 hPa | 0 mm | - | 0 W/m² | - |
| 1777858139 | 3.89° C | 77% | 1007.8 hPa | 0 mm | - | 0 W/m² | - |
| 1777857837 | 3.89° C | 75% | 1007.7 hPa | 0 mm | - | 0 W/m² | - |
| 1777857534 | 4.44° C | 72% | 1007.6 hPa | 0 mm | - | 0 W/m² | - |
* Rain latest hour (hover to see other rain measurements)
** Current wind speed in m/s (hover to see current wind gust speed)